Weather History for KCEF - March, 2013

Change the Weather History Date:

Friday, March 15, 2013

  Actual Average Record
Temperature  
Mean Temperature 31 °F -  
Max Temperature 42 °F 40 °F 59 °F (2009)
Min Temperature 21 °F 24 °F 20 °F (2011)
Degree Days  
Heating Degree Days 34    
Moisture  
Dew Point 19 °F    
Average Humidity 60    
Maximum Humidity 87    
Minimum Humidity 31    
Precipitation  
Precipitation 0.00 in - - ()
Sea Level Pressure  
Sea Level Pressure 29.77 in    
Wind  
Wind Speed 9 mph (West)    
Max Wind Speed 20 mph    
Max Gust Speed 25 mph    
Visibility 10 miles    
Events Snow    
Averages and records for this station are not official NWS values.
T = Trace of Precipitation, MM = Missing Value Source: NWS Daily Summary

Daily Weather History Graph

Daily Weather History Graph

Search for Another Location

Airport or City:

Trip Planner

Search our weather history database for the weather conditions in past years. The results will help you decide how hot, cold, wet, or windy it might be!

Date:

Astronomy

Mar. 15, 2013 Rise Set
Actual Time 7:01 AM EDT 6:56 PM EDT
Civil Twilight 6:33 AM EDT 7:24 PM EDT
Nautical Twilight 6:01 AM EDT 7:57 PM EDT
Astronomical Twilight 5:28 AM EDT 8:30 PM EDT
Moon 8:45 AM EDT (3/15) 11:13 PM EDT (3/15)
Length of Visible Light 12h 51m
Length of Day
11h 55m
Waxing Crescent, 15% of the Moon is Illuminated
Mar 15
Waxing Crescent
Mar 19
First Quarter
Mar 27
Full
Apr 3
Last Quarter
Apr 10
New

Hourly Weather History & Observations

Time (EDT) Temp. Windchill Dew Point Humidity Pressure Visibility Wind Dir Wind Speed Gust Speed Precip Events Conditions
12:55 AM 25.0 °F 15.5 °F 17.6 °F 74% 29.88 in 10.0 mi North 9.2 mph - 0.00 in Snow Light Snow
1:55 AM 24.8 °F 16.9 °F 16.0 °F 69% 29.88 in 10.0 mi NW 6.9 mph - 0.00 in   Mostly Cloudy
2:55 AM 25.3 °F 15.3 °F 12.2 °F 58% 29.89 in 10.0 mi NNW 10.4 mph - N/A   Overcast
3:55 AM 24.4 °F 17.5 °F 11.8 °F 59% 29.88 in 10.0 mi NNW 5.8 mph - N/A   Overcast
4:55 AM 23.0 °F 17.0 °F 10.8 °F 60% 29.88 in 10.0 mi NW 4.6 mph - N/A   Clear
5:55 AM 21.9 °F 15.7 °F 9.5 °F 59% 29.89 in 10.0 mi North 4.6 mph - N/A   Clear
6:55 AM 22.1 °F - 7.9 °F 54% 29.90 in 10.0 mi Calm Calm - N/A   Clear
7:55 AM 21.9 °F - 10.9 °F 63% 29.90 in 10.0 mi Calm Calm - N/A   Clear
8:55 AM 24.8 °F 20.5 °F 6.1 °F 45% 29.90 in 10.0 mi WSW 3.5 mph - N/A   Partly Cloudy
9:55 AM 28.0 °F 20.8 °F 4.3 °F 36% 29.89 in 10.0 mi West 6.9 mph - N/A   Clear
10:55 AM 32.2 °F 24.4 °F 4.5 °F 31% 29.86 in 10.0 mi West 9.2 mph - N/A   Overcast
11:55 AM 34.0 °F 29.8 °F 9.5 °F 36% 29.83 in 10.0 mi WSW 4.6 mph 17.3 mph N/A   Overcast
12:55 PM 36.9 °F 31.4 °F 10.8 °F 34% 29.78 in 10.0 mi SSW 6.9 mph - N/A   Overcast
1:55 PM 39.2 °F 32.0 °F 12.0 °F 33% 29.74 in 10.0 mi SW 11.5 mph 20.7 mph N/A   Mostly Cloudy
2:55 PM 41.2 °F 33.7 °F 12.2 °F 31% 29.70 in 10.0 mi SSW 13.8 mph - N/A   Mostly Cloudy
3:55 PM 40.5 °F 32.1 °F 19.4 °F 43% 29.68 in 10.0 mi WSW 16.1 mph 20.7 mph N/A   Mostly Cloudy
4:25 PM 41.0 °F 31.9 °F 23.0 °F 49% 29.68 in 10.0 mi West 19.6 mph 24.2 mph N/A   Unknown
4:55 PM 39.2 °F 29.8 °F 24.8 °F 56% 29.68 in 10.0 mi WSW 18.4 mph 25.3 mph N/A   Unknown
5:14 PM 39.2 °F 31.2 °F 24.8 °F 56% 29.67 in 10.0 mi WSW 13.8 mph 23.0 mph N/A   Scattered Clouds
5:55 PM 39.2 °F 30.2 °F 26.6 °F 61% 29.67 in 10.0 mi WSW 17.3 mph 21.9 mph N/A   Scattered Clouds
6:55 PM 35.6 °F 25.9 °F 26.6 °F 70% 29.67 in 10.0 mi SW 16.1 mph - N/A   Scattered Clouds
7:55 PM 34.7 °F 26.4 °F 27.3 °F 74% 29.69 in 10.0 mi WSW 11.5 mph - N/A   Clear
8:55 PM 33.3 °F 25.7 °F 27.5 °F 79% 29.69 in 10.0 mi SW 9.2 mph - N/A   Partly Cloudy
9:55 PM 34.5 °F 28.6 °F 27.3 °F 75% 29.69 in 10.0 mi WSW 6.9 mph - N/A   Partly Cloudy
10:16 PM 35.6 °F 28.6 °F 28.4 °F 75% 29.71 in 10.0 mi NW 9.2 mph - N/A   Scattered Clouds
10:21 PM 35.6 °F 27.5 °F 28.4 °F 75% 29.72 in 7.0 mi WNW 11.5 mph 17.3 mph N/A Snow Light Snow
10:22 PM 33.8 °F 25.8 °F 30.2 °F 87% 29.72 in 6.0 mi WNW 10.4 mph 17.3 mph N/A Snow Light Snow
10:27 PM 33.8 °F 23.5 °F 30.2 °F 87% 29.72 in 5.0 mi West 16.1 mph - N/A Snow Light Snow
10:47 PM 33.8 °F 24.8 °F 28.4 °F 81% 29.71 in 10.0 mi West 12.7 mph - N/A   Mostly Cloudy
10:49 PM 33.8 °F 24.8 °F 28.4 °F 81% 29.71 in 10.0 mi West 12.7 mph - N/A   Scattered Clouds
10:55 PM 33.1 °F 24.9 °F 28.2 °F 82% 29.71 in 10.0 mi West 10.4 mph - 0.00 in   Scattered Clouds
11:55 PM 34.2 °F 24.4 °F 22.1 °F 61% 29.73 in 10.0 mi WNW 15.0 mph 21.9 mph N/A   Clear